Location: Bruderhein
(53.8035°N, 112.9265°W)
Time: 18:22:22
(UTC+00:00)

Max Valier Satellite - Pass Details

Date: 02 April 2023
Orbit: 445 x 458 km, 97.2° (Epoch: 31 May)

Event Time Altitude Azimuth Distance (km) Brightness Sun altitude
Rises 03:18:44 0° 186° (S) 2,439 ? -10.9°
Maximum altitude 03:23:58 34° 263° (W) 768 ? -11.6°
Drops below altitude 10° 03:27:08 10° 330° (NNW) 1,601 ? -12.0°
Sets 03:29:19 0° 340° (NNW) 2,486 ? -12.3°
